Hourly Data Report for May 24, 2021

ATIKOKAN (AUT)
ONTARIO
Current Station Operator: ECCC - MSC

48°45'40.000" N
91°37'41.000" W
389.30 m
6020LPQ
71747
WCH

Download Data

Hourly Data (May 2021)
Hourly Data Report for May 24, 2021
TIME
LST
Temp Definition
°C
Dew Point Definition
°C
Rel Hum Definition
%
Precip. Amount Definition
mm

Wind Dir Definition
10's deg

Wind Spd Definition
km/h
Visibility Definition
km
Stn Press Definition
kPa
Hmdx Definition


Wind Chill Definition


Weather Definition


00:00 8.4 2.0 64 0.0 14 6   97.43     LegendNANA
01:00 8.3 2.1 65 0.0 14 4   97.35     LegendNANA
02:00 8.1 2.3 67 0.0 14 5   97.26     LegendNANA
03:00 8.2 3.5 73 0.0 13 5   97.21     LegendNANA
04:00 8.1 3.8 75 0.0 13 4   97.12     LegendNANA
05:00 8.0 5.8 86 0.0 15 5   97.06     LegendNANA
06:00 8.5 6.8 89 0.0 13 5   97.03     LegendNANA
07:00 10.1 7.5 84 0.0 13 5   96.95     LegendNANA
08:00 12.3 9.3 82 0.0 16 8   96.86     LegendNANA
09:00 15.9 11.0 72 0.0 12 9   96.74     LegendNANA
10:00 19.4 13.1 67 0.0 16 11   96.64     LegendNANA
11:00 21.8 14.4 63 0.0 18 13   96.53 25   LegendNANA
12:00 23.8 16.2 63 0.0 18 14   96.49 29   LegendNANA
13:00 20.2 16.3 78 0.0 24 13   96.55 25   LegendNANA
14:00 18.9 17.5 92 1.1 21 6   96.49     LegendNANA
15:00 20.8 16.7 77 0.0 17 11   96.39 26   LegendNANA
16:00 22.5 15.7 65 0.0 20 15   96.33 27   LegendNANA
17:00 23.2 13.8 56 0.0 24 15   96.29 26   LegendNANA
18:00 23.0 13.4 55 0.0 23 11   96.26 26   LegendNANA
19:00 22.2 14.0 60 0.0 21 5   96.22 26   LegendNANA
20:00 16.5 13.8 84 0.0   0   96.22     LegendNANA
21:00 14.2 13.3 95 0.0 24 1   96.23     LegendNANA
22:00 18.5 15.1 81 0.0 19 10   96.20     LegendNANA
23:00 18.2 15.7 85 0.0 19 9   96.14     LegendNANA

Notes on Data Quality.

Legend

  • E = Estimated
  • M = Missing
  • NA = Not Available*
  • [empty] = Indicates an unobserved value
Date modified: